Flag for Germany Weather past 2 weeks in Euskirchen, North Rhine-Westphalia, Germany

Now
90 °F

Partly sunny.


Feels Like: 93 °F
Forecast: 66 / 87 °F
Wind: 5 mph from West

Location: Noervenich

Current Time: Aug 30, 2015 at 6:00:31 PM

Latest Report: Aug 30, 2015 at 5:20 PM


Visibility: N/A

Pressure: 29.98 "Hg

Humidity: 49%

Dew point: 68 °F

Location of EuskirchenLocation

Historic Weather in Euskirchen — Graph

°F

Euskirchen temperature yesterday

Maximum temperature yesterday: 77 °F (at 5:20 PM)
Minimum temperature yesterday: 50 °F (at 5:20 AM)
Average temperature yesterday: 64 °F

Past Weeks' High & Low Weather Summary

 TemperatureHumidityPressure
High91 °F (Aug 30, 3:20 PM)100% (Aug 15, 9:20 PM)30.24 "Hg (Aug 15, 9:20 PM)
Low48 °F (Aug 19, 6:20 AM)30% (Aug 23, 3:20 PM)29.53 "Hg (Aug 24, 2:20 PM)
Average64 °F75%29.97 "Hg
* Reported Aug 15 5:20 PM — Aug 30 4:20 PM, Euskirchen, Weather by CustomWeather, © 2015

Note: Actual official high and low records may vary slightly from our data, if they occured in-between our weather recording intervals... More about our weather records

Advertising

Euskirchen weather history for previous 24 hours

 ConditionsComfort  
Time TempWeatherWind HumidityBarometerVisibility
4:20 PM
Sun, Aug 30
91 °FPartly sunny.7 mph46%29.98 "HgN/A
3:20 PM91 °FPartly sunny.5 mph44%29.98 "HgN/A
2:20 PM90 °FPartly sunny.7 mph43%29.98 "HgN/A
1:20 PM90 °FPassing clouds.3 mph46%30.01 "HgN/A
12:20 PM86 °FPassing clouds.3 mph59%30.01 "HgN/A
11:20 AM81 °FPassing clouds.3 mph70%30.01 "HgN/A
10:20 AM77 °FPassing clouds.2 mph74%30.04 "HgN/A
9:20 AM73 °FPassing clouds.2 mph83%30.04 "HgN/A
8:20 AM70 °FScattered clouds.3 mph88%30.04 "HgN/A
7:20 AM64 °FPassing clouds.1 mph94%30.04 "HgN/A
6:20 AM66 °FPassing clouds.2 mph94%30.01 "HgN/A
5:20 AM66 °FMild.5 mph94%30.01 "Hg4 mi
4:20 AM66 °FMild.3 mph94%30.04 "Hg4 mi
3:20 AM66 °FMild.3 mph94%30.04 "Hg4 mi
2:20 AM64 °FMild.2 mph94%30.07 "Hg4 mi
1:20 AM66 °FMild.1 mph88%30.07 "Hg5 mi
12:20 AM66 °FMild.3 mph94%30.07 "Hg6 mi
11:20 PM
Sat, Aug 29
68 °FMild.No wind88%30.09 "Hg6 mi
10:20 PM70 °FMild.1 mph83%30.09 "Hg5 mi
9:20 PM72 °FMild.1 mph78%30.09 "Hg5 mi
8:20 PM73 °FMild.1 mph78%30.09 "Hg6 mi
7:20 PM77 °FWarm.1 mph65%30.09 "Hg4 mi
6:20 PM77 °FWarm.3 mph65%30.09 "Hg4 mi
Weather by CustomWeather, © 2015

See weather overviewHow to use our weather pages